Time,TemperatureF,DewpointF,PressureIn,WindDirection,WindDirectionDegrees,WindSpeedMPH,WindSpeedGustMPH,Humidity,HourlyPrecipIn,Conditions,Clouds,dailyrainin,SoftwareType,DateUTC
2013-03-05 00:07:00,33.0,30.0,29.56,West,274,0.0,0.0,90,0.00,,,0.00,weatherlink.com 1.10,2013-03-05 00:07:00,
2013-03-05 00:22:00,32.5,30.0,29.56,West,274,0.0,0.0,90,0.00,,,0.00,weatherlink.com 1.10,2013-03-05 00:22:00,
2013-03-05 00:37:00,32.5,30.0,29.56,WSW,257,0.0,1.0,90,0.00,,,0.00,weatherlink.com 1.10,2013-03-05 00:37:00,
2013-03-05 00:52:00,32.2,30.0,29.56,SW,228,0.0,1.0,91,0.00,,,0.00,weatherlink.com 1.10,2013-03-05 00:52:00,
2013-03-05 01:07:00,32.2,30.0,29.55,SW,215,0.0,1.0,91,0.00,,,0.00,weatherlink.com 1.10,2013-03-05 01:07:00,
2013-03-05 01:22:00,32.0,29.0,29.55,SW,217,0.0,0.0,90,0.00,,,0.00,weatherlink.com 1.10,2013-03-05 01:22:00,
2013-03-05 01:37:00,31.5,29.0,29.54,SW,217,0.0,0.0,90,0.00,,,0.00,weatherlink.com 1.10,2013-03-05 01:37:00,
2013-03-05 01:52:00,31.3,29.0,29.54,SW,217,0.0,0.0,91,0.00,,,0.00,weatherlink.com 1.10,2013-03-05 01:52:00,
2013-03-05 02:07:00,31.1,29.0,29.54,SW,217,0.0,1.0,91,0.00,,,0.00,weatherlink.com 1.10,2013-03-05 02:07:00,
2013-03-05 02:23:00,30.8,29.0,29.53,SW,217,0.0,0.0,91,0.00,,,0.00,weatherlink.com 1.10,2013-03-05 02:23:00,
2013-03-05 02:38:00,30.8,29.0,29.54,SW,217,0.0,0.0,91,0.00,,,0.00,weatherlink.com 1.10,2013-03-05 02:38:00,
2013-03-05 02:53:00,30.5,28.0,29.53,SW,217,0.0,0.0,91,0.00,,,0.00,weatherlink.com 1.10,2013-03-05 02:53:00,
2013-03-05 03:08:00,30.7,28.0,29.53,SW,226,0.0,1.0,91,0.00,,,0.00,weatherlink.com 1.10,2013-03-05 03:08:00,
2013-03-05 03:23:00,30.4,28.0,29.53,SW,226,0.0,0.0,91,0.00,,,0.00,weatherlink.com 1.10,2013-03-05 03:23:00,
2013-03-05 03:38:00,30.2,28.0,29.53,SW,226,0.0,0.0,91,0.00,,,0.00,weatherlink.com 1.10,2013-03-05 03:38:00,
2013-03-05 03:53:00,30.1,28.0,29.53,SW,227,0.0,0.0,92,0.00,,,0.00,weatherlink.com 1.10,2013-03-05 03:53:00,
2013-03-05 04:08:00,29.9,28.0,29.53,SW,227,0.0,0.0,92,0.00,,,0.00,weatherlink.com 1.10,2013-03-05 04:08:00,
2013-03-05 04:23:00,29.4,27.0,29.52,SW,227,0.0,0.0,91,0.00,,,0.00,weatherlink.com 1.10,2013-03-05 04:23:00,
2013-03-05 04:38:00,29.4,27.0,29.52,SW,226,0.0,0.0,92,0.00,,,0.00,weatherlink.com 1.10,2013-03-05 04:38:00,
2013-03-05 04:53:00,29.4,27.0,29.52,SW,226,0.0,0.0,92,0.00,,,0.00,weatherlink.com 1.10,2013-03-05 04:53:00,
2013-03-05 05:08:00,29.6,28.0,29.52,SW,225,0.0,1.0,92,0.00,,,0.00,weatherlink.com 1.10,2013-03-05 05:08:00,
2013-03-05 05:23:00,29.7,28.0,29.52,SW,225,0.0,1.0,92,0.00,,,0.00,weatherlink.com 1.10,2013-03-05 05:23:00,
2013-03-05 05:38:00,29.7,28.0,29.51,SW,224,0.0,1.0,92,0.00,,,0.00,weatherlink.com 1.10,2013-03-05 05:38:00,
2013-03-05 05:53:00,29.3,27.0,29.51,SW,225,0.0,0.0,92,0.00,,,0.00,weatherlink.com 1.10,2013-03-05 05:53:00,
2013-03-05 06:08:00,28.8,27.0,29.51,SW,225,0.0,0.0,92,0.00,,,0.00,weatherlink.com 1.10,2013-03-05 06:08:00,
2013-03-05 06:23:00,29.2,28.0,29.50,SW,225,0.0,0.0,93,0.00,,,0.00,weatherlink.com 1.10,2013-03-05 06:23:00,
2013-03-05 06:38:00,29.4,28.0,29.50,SW,225,0.0,1.0,93,0.00,,,0.00,weatherlink.com 1.10,2013-03-05 06:38:00,
2013-03-05 06:53:00,29.3,28.0,29.50,SW,224,0.0,0.0,93,0.00,,,0.00,weatherlink.com 1.10,2013-03-05 06:53:00,
2013-03-05 07:08:00,29.7,28.0,29.51,SW,225,0.0,1.0,93,0.00,,,0.00,weatherlink.com 1.10,2013-03-05 07:08:00,
2013-03-05 07:23:00,32.1,31.0,29.50,ESE,118,1.0,2.0,95,0.00,,,0.00,weatherlink.com 1.10,2013-03-05 07:23:00,
2013-03-05 07:38:00,34.9,33.0,29.50,East,94,3.0,4.0,94,0.00,,,0.00,weatherlink.com 1.10,2013-03-05 07:38:00,
2013-03-05 07:53:00,36.3,34.0,29.50,East,100,3.0,4.0,92,0.00,,,0.00,weatherlink.com 1.10,2013-03-05 07:53:00,
2013-03-05 08:08:00,37.4,35.0,29.50,ESE,102,1.0,4.0,91,0.00,,,0.00,weatherlink.com 1.10,2013-03-05 08:08:00,
2013-03-05 08:23:00,38.7,36.0,29.49,ESE,115,2.0,4.0,90,0.00,,,0.00,weatherlink.com 1.10,2013-03-05 08:23:00,
2013-03-05 08:38:00,39.6,36.0,29.49,East,88,3.0,5.0,88,0.00,,,0.00,weatherlink.com 1.10,2013-03-05 08:38:00,
2013-03-05 08:53:00,40.6,37.0,29.49,ENE,68,3.0,5.0,87,0.00,,,0.00,weatherlink.com 1.10,2013-03-05 08:53:00,
2013-03-05 09:08:00,41.6,38.0,29.48,ESE,112,2.0,6.0,86,0.00,,,0.00,weatherlink.com 1.10,2013-03-05 09:08:00,
2013-03-05 09:24:00,42.5,38.0,29.48,ESE,120,6.0,9.0,84,0.00,,,0.00,weatherlink.com 1.10,2013-03-05 09:24:00,
2013-03-05 09:39:00,43.2,38.0,29.48,SSE,150,4.0,11.0,83,0.00,,,0.00,weatherlink.com 1.10,2013-03-05 09:39:00,
2013-03-05 09:54:00,44.0,39.0,29.47,ENE,74,3.0,8.0,82,0.00,,,0.00,weatherlink.com 1.10,2013-03-05 09:54:00,
2013-03-05 10:09:00,44.4,39.0,29.47,ESE,115,5.0,10.0,82,0.00,,,0.00,weatherlink.com 1.10,2013-03-05 10:09:00,
2013-03-05 10:24:00,45.0,39.0,29.47,ESE,112,11.0,11.0,80,0.00,,,0.00,weatherlink.com 1.10,2013-03-05 10:24:00,
2013-03-05 10:39:00,45.3,39.0,29.47,ESE,116,10.0,11.0,78,0.00,,,0.00,weatherlink.com 1.10,2013-03-05 10:39:00,
2013-03-05 10:54:00,46.1,39.0,29.47,East,91,6.0,8.0,76,0.00,,,0.00,weatherlink.com 1.10,2013-03-05 10:54:00,
2013-03-05 11:09:00,46.4,39.0,29.46,East,88,4.0,10.0,76,0.00,,,0.00,weatherlink.com 1.10,2013-03-05 11:09:00,
2013-03-05 11:24:00,46.9,39.0,29.46,East,94,8.0,10.0,73,0.00,,,0.00,weatherlink.com 1.10,2013-03-05 11:24:00,
2013-03-05 11:39:00,47.5,39.0,29.46,SE,136,4.0,11.0,71,0.00,,,0.00,weatherlink.com 1.10,2013-03-05 11:39:00,
2013-03-05 11:54:00,47.5,38.0,29.46,ESE,115,6.0,12.0,69,0.00,,,0.00,weatherlink.com 1.10,2013-03-05 11:54:00,
2013-03-05 12:09:00,47.4,38.0,29.46,SSE,160,2.0,9.0,69,0.00,,,0.00,weatherlink.com 1.10,2013-03-05 12:09:00,
2013-03-05 12:24:00,47.3,38.0,29.45,ESE,105,4.0,10.0,69,0.00,,,0.00,weatherlink.com 1.10,2013-03-05 12:24:00,
2013-03-05 12:39:00,47.3,38.0,29.45,SE,134,4.0,9.0,70,0.00,,,0.00,weatherlink.com 1.10,2013-03-05 12:39:00,
2013-03-05 12:54:00,47.3,37.0,29.44,East,89,3.0,9.0,68,0.00,,,0.00,weatherlink.com 1.10,2013-03-05 12:54:00,
2013-03-05 13:09:00,47.2,37.0,29.44,ESE,107,6.0,8.0,67,0.00,,,0.00,weatherlink.com 1.10,2013-03-05 13:09:00,
2013-03-05 13:24:00,46.9,38.0,29.44,East,91,5.0,8.0,72,0.00,,,0.00,weatherlink.com 1.10,2013-03-05 13:24:00,
2013-03-05 13:39:00,47.9,38.0,29.43,East,90,7.0,9.0,69,0.00,,,0.00,weatherlink.com 1.10,2013-03-05 13:39:00,
2013-03-05 13:54:00,48.1,38.0,29.43,East,80,7.0,10.0,69,0.00,,,0.00,weatherlink.com 1.10,2013-03-05 13:54:00,
2013-03-05 14:09:00,47.7,38.0,29.43,ENE,62,8.0,12.0,70,0.00,,,0.00,weatherlink.com 1.10,2013-03-05 14:09:00,
2013-03-05 14:24:00,47.1,38.0,29.43,ESE,114,4.0,12.0,72,0.00,,,0.00,weatherlink.com 1.10,2013-03-05 14:24:00,
2013-03-05 14:39:00,46.7,39.0,29.43,ESE,104,4.0,12.0,75,0.00,,,0.00,weatherlink.com 1.10,2013-03-05 14:39:00,
2013-03-05 14:54:00,46.5,39.0,29.43,East,86,5.0,9.0,76,0.00,,,0.00,weatherlink.com 1.10,2013-03-05 14:54:00,
2013-03-05 15:09:00,47.0,40.0,29.43,South,172,6.0,10.0,78,0.00,,,0.00,weatherlink.com 1.10,2013-03-05 15:09:00,
2013-03-05 15:24:00,46.1,40.0,29.42,East,79,4.0,10.0,80,0.00,,,0.00,weatherlink.com 1.10,2013-03-05 15:24:00,
2013-03-05 15:39:00,45.6,40.0,29.42,East,96,6.0,8.0,82,0.00,,,0.00,weatherlink.com 1.10,2013-03-05 15:39:00,
2013-03-05 15:54:00,45.0,41.0,29.42,NE,51,5.0,8.0,84,0.00,,,0.00,weatherlink.com 1.10,2013-03-05 15:54:00,
2013-03-05 16:09:00,44.4,41.0,29.42,ESE,103,7.0,9.0,86,0.00,,,0.00,weatherlink.com 1.10,2013-03-05 16:09:00,
2013-03-05 16:24:00,44.1,41.0,29.42,East,98,8.0,10.0,87,0.00,,,0.00,weatherlink.com 1.10,2013-03-05 16:24:00,
2013-03-05 16:39:00,43.7,40.0,29.42,SSE,147,5.0,8.0,86,0.00,,,0.00,weatherlink.com 1.10,2013-03-05 16:39:00,
2013-03-05 16:54:00,43.8,40.0,29.42,ESE,104,5.0,8.0,87,0.00,,,0.00,weatherlink.com 1.10,2013-03-05 16:54:00,
2013-03-05 17:09:00,43.4,40.0,29.42,East,83,4.0,7.0,88,0.00,,,0.00,weatherlink.com 1.10,2013-03-05 17:09:00,
2013-03-05 17:25:00,43.1,40.0,29.41,ESE,113,4.0,6.0,88,0.00,,,0.00,weatherlink.com 1.10,2013-03-05 17:25:00,
2013-03-05 17:40:00,42.9,40.0,29.41,SE,129,5.0,7.0,89,0.00,,,0.00,weatherlink.com 1.10,2013-03-05 17:40:00,
2013-03-05 17:55:00,42.8,40.0,29.41,ESE,118,4.0,7.0,89,0.00,,,0.00,weatherlink.com 1.10,2013-03-05 17:55:00,
2013-03-05 18:10:00,42.6,40.0,29.41,East,89,5.0,8.0,90,0.00,,,0.00,weatherlink.com 1.10,2013-03-05 18:10:00,
2013-03-05 18:25:00,42.5,40.0,29.41,SSE,149,3.0,6.0,90,0.00,,,0.00,weatherlink.com 1.10,2013-03-05 18:25:00,
2013-03-05 18:40:00,42.4,40.0,29.42,ESE,108,2.0,8.0,90,0.00,,,0.00,weatherlink.com 1.10,2013-03-05 18:40:00,
2013-03-05 18:55:00,42.5,40.0,29.42,ESE,111,3.0,9.0,90,0.00,,,0.00,weatherlink.com 1.10,2013-03-05 18:55:00,
2013-03-05 19:10:00,42.6,40.0,29.42,SE,127,2.0,7.0,91,0.00,,,0.00,weatherlink.com 1.10,2013-03-05 19:10:00,
2013-03-05 19:25:00,42.7,40.0,29.42,East,89,4.0,7.0,91,0.00,,,0.00,weatherlink.com 1.10,2013-03-05 19:25:00,
2013-03-05 19:40:00,42.7,40.0,29.42,ESE,118,4.0,8.0,91,0.00,,,0.00,weatherlink.com 1.10,2013-03-05 19:40:00,
2013-03-05 19:55:00,42.8,40.0,29.42,East,87,3.0,6.0,91,0.00,,,0.00,weatherlink.com 1.10,2013-03-05 19:55:00,
2013-03-05 20:25:00,42.9,41.0,29.42,SE,126,2.0,7.0,91,0.00,,,0.00,weatherlink.com 1.10,2013-03-05 20:25:00,
2013-03-05 20:40:00,42.9,41.0,29.41,East,92,3.0,6.0,91,0.00,,,0.00,weatherlink.com 1.10,2013-03-05 20:40:00,
2013-03-05 20:55:00,43.0,41.0,29.41,ESE,102,4.0,6.0,91,0.00,,,0.00,weatherlink.com 1.10,2013-03-05 20:55:00,
2013-03-05 21:10:00,42.9,41.0,29.41,ESE,113,2.0,7.0,91,0.00,,,0.00,weatherlink.com 1.10,2013-03-05 21:10:00,
2013-03-05 21:25:00,43.0,41.0,29.41,East,79,2.0,4.0,91,0.00,,,0.00,weatherlink.com 1.10,2013-03-05 21:25:00,
2013-03-05 21:40:00,42.9,41.0,29.41,ESE,108,2.0,2.0,91,0.00,,,0.00,weatherlink.com 1.10,2013-03-05 21:40:00,
2013-03-05 21:55:00,42.9,41.0,29.41,ESE,120,2.0,3.0,91,0.00,,,0.00,weatherlink.com 1.10,2013-03-05 21:55:00,
2013-03-05 22:10:00,42.8,40.0,29.41,ESE,104,2.0,5.0,91,0.00,,,0.00,weatherlink.com 1.10,2013-03-05 22:10:00,
2013-03-05 22:25:00,42.8,40.0,29.41,SE,146,2.0,6.0,91,0.00,,,0.00,weatherlink.com 1.10,2013-03-05 22:25:00,
2013-03-05 22:40:00,42.9,41.0,29.41,East,91,5.0,7.0,91,0.00,,,0.00,weatherlink.com 1.10,2013-03-05 22:40:00,
2013-03-05 22:55:00,42.9,41.0,29.41,East,98,2.0,5.0,91,0.00,,,0.00,weatherlink.com 1.10,2013-03-05 22:55:00,
2013-03-05 23:10:00,42.9,41.0,29.41,ENE,78,3.0,5.0,91,0.00,,,0.00,weatherlink.com 1.10,2013-03-05 23:10:00,
2013-03-05 23:25:00,42.8,40.0,29.41,East,91,3.0,5.0,91,0.00,,,0.00,weatherlink.com 1.10,2013-03-05 23:25:00,
2013-03-05 23:40:00,42.7,40.0,29.40,ESE,104,2.0,5.0,91,0.00,,,0.00,weatherlink.com 1.10,2013-03-05 23:40:00,
2013-03-05 23:55:00,42.7,40.0,29.40,ESE,113,3.0,4.0,91,0.00,,,0.00,weatherlink.com 1.10,2013-03-05 23:55:00,